Overview Statistics Trail Chart Weather Telemetry Raw packets
 

This is the latest recevied weather packets stored in our database for station/object SV9TNF-51. If no packets are shown the sender has not sent any weather packets the latest 10 day(s).

<< 1 2 3 4 5 6 >>
Time Temp. Humidity Pressure Rain* Wind** Luminosity Snow
1788652376 25° C 41% 1013.9 hPa 0 mm 1.34 m/s, 121° - -
1788652076 25° C 43% 1013.9 hPa 0 mm 1.79 m/s, 116° - -
1788651776 24.44° C 44% 1013.9 hPa 0 mm 1.34 m/s, 125° - -
1788651476 24.44° C 46% 1013.9 hPa 0 mm 0.89 m/s, 129° - -
1788651176 24.44° C 48% 1013.9 hPa 0 mm 0.45 m/s, 133° - -
1788650876 24.44° C 54% 1013.9 hPa 0 mm 0.45 m/s, 127° - -
1788650576 24.44° C 53% 1013.9 hPa 0 mm 0.89 m/s, 128° - -
1788650276 24.44° C 52% 1013.9 hPa 0 mm 0 m/s - -
1788649975 24.44° C 54% 1013.9 hPa 0 mm 0.45 m/s, 134° - -
1788649675 25° C 53% 1014.2 hPa 0 mm 0 m/s - -
1788649375 25° C 54% 1014.2 hPa 0 mm 0.45 m/s, 131° - -
1788649078 24.44° C 50% 1014.2 hPa 0 mm 0 m/s - -
1788648775 24.44° C 47% 1014.2 hPa 0 mm 1.34 m/s, 167° - -
1788648475 24.44° C 49% 1014.2 hPa 0 mm 2.68 m/s, 138° - -
1788648175 24.44° C 49% 1014.2 hPa 0 mm 4.02 m/s, 336° - -
1788647875 24.44° C 51% 1014.2 hPa 0 mm 4.47 m/s, 339° - -
1788647574 24.44° C 49% 1014.2 hPa 0 mm 4.02 m/s, 318° - -
1788647275 24.44° C 44% 1014.2 hPa 0 mm 5.81 m/s, 336° - -
1788646975 24.44° C 47% 1014.2 hPa 0 mm 4.02 m/s, 0° - -
1788646675 24.44° C 64% 1014.2 hPa 0 mm 4.92 m/s, 326° - -
1788646375 24.44° C 60% 1014.2 hPa 0 mm 3.58 m/s, 18° - -
1788646074 24.44° C 57% 1014.2 hPa 0 mm 0 m/s - -
1788645774 24.44° C 53% 1014.2 hPa 0 mm 0 m/s - -
1788645474 25° C 62% 1014.2 hPa 0 mm 0 m/s - -
1788645174 25° C 62% 1014.2 hPa 0 mm 0.45 m/s, 124° - -

* Rain latest hour (hover to see other rain measurements)
** Current wind speed in m/s (hover to see current wind gust speed)